Regional Weather Roundup
Issued by NWS

Home | Current Version | Previous Version | Text Only | Print | Product List | Glossary Off
Versions: 1 2 3 4 5 6 7 8 9 10 11 12 13 14 15 16 17 18 19 20 21 22 23 24 25 26 27 28 29 30 31 32 33 34 35 36 37 38 39 40 41 42 43 44 45 46 47 48 49 50

369
ASUS43 KMPX 191001
RWRMN
WEATHER ROUNDUP FOR MINNESOTA
NATIONAL WEATHER SERVICE TWIN CITIES/CHANHASSEN MN
500 AM CDT THU APR 19 2018


NOTE: "FAIR" INDICATES FEW OR NO CLOUDS BELOW 12,000 FEET WITH NO
SIGNIFICANT WEATHER AND/OR OBSTRUCTIONS TO VISIBILITY. N/A MEANS
CURRENT SKY AND/OR WEATHER CONDITIONS ARE NOT AVAILABLE.

MNZ060>063-068>070-191100-
   Twin Cities Metro

CITY           SKY/WX    TMP DP  RH WIND       PRES   REMARKS
TWIN CITIES    FAIR      27  17  66 NW8       30.35R WCI  19
ST PAUL        FAIR      25  15  66 NW8       30.36R WCI  16
CRYSTAL        FAIR      26  14  60 NW6       30.34R WCI  19
BLAINE         FAIR      27  18  69 NW3       30.35R
LAKEVILLE      FAIR      21  16  79 NW7       30.33R WCI  13
EDEN PRAIRIE   FAIR      30  14  51 N9        30.34R WCI  22
SOUTH ST PAUL  FLURRIES  25  17  71 CALM      30.35R
LAKE ELMO      FAIR      21  14  73 CALM      30.34R
$$
MNZ001>005-007-008-013>017-022>024-027-028-191100-
   Northwest Minnesota

CITY           SKY/WX    TMP DP  RH WIND       PRES   REMARKS
BEMIDJI        FAIR      24  17  74 CALM      30.34R
HALLOCK        FAIR      34  25  69 SE3       30.35R
ROSEAU         FAIR      28  25  86 CALM      30.35R
WARROAD        FAIR      25  18  74 W5        30.35R WCI  19
THIEF RVR FALL FAIR      29  20  69 CALM      30.36R
CROOKSTON      FAIR      32  27  80 E3        30.36R
FOSSTON        FAIR      25  10  54 CALM      30.35R
DETROIT LAKES  FAIR      30  27  86 CALM      30.36R
MOORHEAD       FAIR      30  28  93 CALM      30.36R
PARK RAPIDS    FAIR      26  19  74 CALM      30.33R
MAHNOMEN       FAIR      28  20  71 SE5       30.34R WCI  23
$$
MNZ006-009>011-018-025>026-191100-
   North Central Minnesota

CITY           SKY/WX    TMP DP  RH WIND       PRES   REMARKS
BAUDETTE       FAIR      25  22  88 CALM      30.34R
FLAG ISLAND    FAIR      27  18  69 CALM      30.34R
INTL FALLS     FAIR      21  18  88 CALM      30.34R
WASKISH        FAIR      21  19  93 CALM      30.34S
BIG FORK         N/A     19  16  86 CALM      30.33S
LONGVILLE      FAIR      19  18  93 CALM      30.34R
GRAND RAPIDS   FAIR      24  17  74 CALM      30.35R
CRANE LAKE     FAIR      14  12  92 CALM      30.36R
ORR            FAIR      19  10  68 CALM      30.31R
COOK           FAIR      18  16  93 CALM      30.34R
WALKER         FAIR      24  15  68 CALM      30.34R
$$
MNZ012-019>021-037-191100-
   Northeast Minnesota

CITY           SKY/WX    TMP DP  RH WIND       PRES   REMARKS
DULUTH         FAIR      26  11  52 N7        30.30R WCI  18
ELY            FAIR      18  16  93 CALM      30.32R
HIBBING        FAIR      19  15  84 NW5       30.32R WCI  12
EVELETH        FAIR      20  17  90 CALM      30.32R
DULUTH HARBOR  FAIR      27  19  74 SW5       30.33R WCI  21
TWO HARBORS    FAIR      25  16  68 CALM      30.29R
SILVER BAY     FAIR      19  16  86 CALM      30.29R
GRAND MARAIS     N/A     36  14  40 N10G21    30.29R
G MARAIS ARPRT FAIR      25   9  50 N7        30.27R WCI  17
$$
MNZ029>031-032-039>041-046>048-054>057-064-191100-
   West Central Minnesota

CITY           SKY/WX    TMP DP  RH WIND       PRES   REMARKS
FERGUS FALLS   FAIR      32  25  74 E5        30.34R WCI  27
WHEATON        PTCLDY    30  28  93 CALM      30.37S
MORRIS         CLOUDY    30  30 100 S3        30.36R
ALEXANDRIA     FAIR      30  21  69 CALM      30.36R
ELBOW LAKE     FAIR      29  28  94 W7        30.36R WCI  22
WADENA         FAIR      25  21  86 CALM      30.35R
GLENWOOD       FAIR      30  25  80 W3        30.36R
APPLETON       CLOUDY    28  27  93 CALM      30.37R
BENSON         CLOUDY    27  25  93 CALM      30.38R
ORTONVILLE     CLOUDY    32  28  86 CALM      30.36S
MADISON        CLOUDY    30  28  93 CALM      30.37S
WILLMAR        FAIR      30  23  74 CALM      30.39R
$$
MNZ033>034-036-042>043-049>051-058-059-191100-
   Central Minnesota

CITY           SKY/WX    TMP DP  RH WIND       PRES   REMARKS
ST CLOUD       FAIR      29  17  61 CALM      30.36R
SAUK CENTRE    FAIR      26  22  85 NW6       30.36R WCI  20
PAYNESVILLE    FAIR      29  27  93 W3        30.37R
AITKIN         FAIR      19  18  93 CALM      30.33R
PINE RIVER     FAIR      21  18  86 CALM      30.37R
BRAINERD       FAIR      25  16  68 CALM      30.35R
STAPLES        FAIR      25  18  74 CALM      30.35R
LONG PRAIRIE   FAIR      27  21  80 CALM      30.36R
LITTLE FALLS   FAIR      27  14  59 CALM      30.36R
LITCHFIELD     FAIR      28  21  74 NW3       30.37R
BUFFALO        FAIR      28  16  60 CALM      30.37R
MAPLE LAKE     FAIR      28  19  71 CALM      30.37R
HUTCHINSON     FAIR      25  17  71 NW6       30.37R WCI  18
$$
MNZ037-044-045-052-053-191100-
   East Central Minnesota

CITY           SKY/WX    TMP DP  RH WIND       PRES   REMARKS
PRINCETON      FAIR      28  18  64 W5        30.36R WCI  23
MORA           FAIR      27  14  59 NW3       30.37R
RUSH CITY      FAIR      26  16  65 W6        30.35R WCI  19
MOOSE LAKE     FAIR      21  14  73 SW3       30.32R
HINCKLEY       FAIR      30  16  55 CALM      30.34R
CLOQUET        FAIR      25  10  54 NW6       30.31R WCI  18
MCGREGOR       FAIR      27  18  69 CALM      30.35R
$$
MNZ071>073-080-081-089-090-097-098-191100-
   Southwest Minnesota

CITY           SKY/WX    TMP DP  RH WIND       PRES   REMARKS
MONTEVIDEO     CLOUDY    30  27  86 CALM      30.38R
GRANITE FALLS  CLOUDY    28  25  89 CALM      30.39R
CANBY          CLOUDY    30  27  87 CALM      30.38S
MARSHALL       PTCLDY    25  22  88 W6        30.37R WCI  18
REDWOOD FALLS  CLOUDY    31  16  54 NW3       30.37R
OLIVIA         CLOUDY    30  23  74 CALM      30.37R
PIPESTONE      CLOUDY   N/A N/A N/A NE5       30.33S
WINDOM           N/A     19   5  53 N5        30.34R WCI  13
WORTHINGTON    CLOUDY    26  16  65 N12       30.34R WCI  16
JACKSON        CLOUDY    21  14  73 N6        30.34R WCI  14
TRACY          CLOUDY    24  22  89 CALM      30.36R
SLAYTON        CLOUDY    25  17  72 N6        30.35R WCI  18
$$
MNZ065>067-074>077-082>085-091>093-191100-
   South Central Minnesota

CITY           SKY/WX    TMP DP  RH WIND       PRES   REMARKS
MANKATO        FAIR      24  20  84 N8        30.35R WCI  15
NEW ULM        CLOUDY    25  16  68 NW6       30.36R WCI  18
ST JAMES       CLOUDY    21  16  79 W7        30.36R WCI  13
FAIRMONT       PTCLDY    22  17  81 NW8       30.35R WCI  12
GLENCOE        FAIR      27  17  64 NW6       30.35R WCI  20
OWATONNA       FAIR      12  10  92 CALM      30.32R
WASECA         FAIR      14  12  92 N3        30.34R
ALBERT LEA     FAIR      19  18  93 CALM      30.30R
$$
MNZ078>079-086>088-094>096-191100-
   Southeast Minnesota

CITY           SKY/WX    TMP DP  RH WIND       PRES   REMARKS
ROCHESTER      FAIR      19  17  92 NW9       30.29R WCI   8
RED WING       FAIR      25  16  68 CALM      30.32R
STANTON        FAIR      17  14  87 SW3       30.33R
DODGE CENTER   FAIR      23  18  80 N6        30.30R WCI  16
WINONA         FAIR      25  23  93 CALM      30.30R
AUSTIN         FAIR      21  18  86 N3        30.29R
PRESTON        FAIR      23  19  82 N8        30.28R WCI  14
$$
ABBREVIATIONS USED IN REMARKS
   TC - TEMPERATURES IN CELSIUS
  WCI - WIND CHILL INDEX
   HX - HEAT INDEX
  VSB - VISIBILITY
$$




USA.gov is the U.S. government's official web portal to all federal, state and local government web resources and services.